Content
SEND FEEDBACK

Daily
Averages
Monthly
Summary
United States of America

OKTAHA, OKLAHOMA


Home > North America > United States > Oklahoma
Elevation: 600 feet     Latitude: 35 34N     Longitude: 095 29W

WEATHER
 
SELECT A DAY
Number of Records: 185,625;   Date Range: 7/12/96 - 9/29/14
 
SHARE

PRINT THIS DATA

[ ← Previous Day ]
WEATHER ALMANAC - FEBRUARY 13, 2013
[ Next Day → ]
[ °C ]   °F
Weather ElementAverageHighLow
Temperature41.3 °F54 °F (2:53 pm)33.8 °F (1:09 am)
Dewpoint35.2 °F37.9 °F (11:53 am)30.9 °F (11:53 pm)
Humidity81.1 %100 % (1:09 am)43 % (2:53 pm)
Barometer30.04 in30.09 in (7:53 am)29.98 in (4:53 pm)
Wind Speed8.1 mph12.7 mph (11:04 am)
Wind Gust18.4 mph (12:53 pm)
Weather ElementAverage
Visibility9.6 mi
Wind DirectionWSW (249.2 °)

Weather ElementTotal
Precipitation---
Heating Degree Days21.1 (Base 65)
Averaged from 36 records on February 13, 2013
WEATHER CONDITIONS BREAKOUT
WIND DIRECTION BREAKOUT
WEATHER BY HOUR - FEBRUARY 13, 2013
[ °C ]   °F
Local TimeTemperatureDewpointHumidityBarometerVisibilityWind DirectionWind SpeedGust SpeedPrecipitationEventsConditions
1:09 AM33.8 °F33.8 °F100 %30.02 in6.0 miNW (310°)9.2 mphOvercast
1:53 AM35.1 °F35.1 °F100 %30.03 in7.0 miNNW (330°)9.2 mphOvercast
2:53 AM36.0 °F35.1 °F97 %30.04 in9.0 miNW (310°)6.9 mphOvercast
3:53 AM36.0 °F35.1 °F97 %30.04 in10.0 miNW (310°)9.2 mph0.00 inRainLight Rain
4:49 AM35.6 °F35.6 °F100 %30.03 in9.0 miWNW (300°)8.1 mphOvercast
4:50 AM36.0 °F35.1 °F97 %30.04 in9.0 miWNW (300°)6.9 mphOvercast
5:30 AM35.6 °F35.6 °F100 %30.03 in8.0 miWest (280°)6.9 mphOvercast
5:53 AM36.0 °F35.1 °F97 %30.05 in9.0 miWNW (290°)6.9 mphOvercast
6:22 AM35.6 °F35.6 °F100 %30.05 in10.0 miWest (280°)6.9 mphOvercast
6:53 AM36.0 °F35.1 °F97 %30.07 in10.0 miWest (280°)6.9 mphOvercast
7:09 AM35.6 °F35.6 °F100 %30.06 in10.0 miWest (280°)5.8 mphOvercast
7:53 AM37.0 °F36.0 °F96 %30.09 in10.0 miWest (260°)8.1 mphOvercast
8:23 AM37.4 °F35.6 °F93 %30.09 in10.0 miWSW (250°)9.2 mphOvercast
8:53 AM39.0 °F37.0 °F93 %30.09 in10.0 miSW (230°)8.1 mphMostly Cloudy
9:07 AM39.2 °F37.4 °F93 %30.08 in10.0 miWSW (240°)6.9 mphMostly Cloudy
9:16 AM39.2 °F37.4 °F93 %30.08 in10.0 miWSW (240°)8.1 mphScattered Clouds
9:53 AM39.9 °F35.1 °F83 %30.09 in10.0 miSW (230°)8.1 mphScattered Clouds
10:28 AM42.8 °F37.4 °F81 %30.08 in10.0 miWSW (250°)11.5 mphMostly Cloudy
10:36 AM42.8 °F35.6 °F76 %30.08 in10.0 miSW (230°)10.4 mphPartly Cloudy
10:53 AM43.0 °F37.0 °F80 %30.09 in10.0 miWest (260°)11.5 mphScattered Clouds
11:04 AM42.8 °F37.4 °F81 %30.08 in10.0 miSW (230°)12.7 mphMostly Cloudy
11:33 AM44.6 °F37.4 °F76 %30.07 in10.0 miSW (230°)11.5 mphScattered Clouds
11:40 AM44.6 °F37.4 °F76 %30.07 in10.0 miWSW (250°)8.1 mphMostly Cloudy
11:53 AM45.0 °F37.9 °F76 %30.07 in10.0 miSW (230°)12.7 mphScattered Clouds
12:53 PM48.0 °F37.9 °F68 %30.05 in10.0 miSW (230°)10.4 mph18.4 mphPartly Cloudy
1:53 PM51.1 °F37.0 °F59 %30.02 in10.0 miWSW (240°)8.1 mphClear
2:53 PM54.0 °F32.0 °F43 %29.99 in10.0 miWSW (240°)11.5 mphClear
3:53 PM54.0 °F32.0 °F43 %29.99 in10.0 miWest (280°)9.2 mphClear
4:53 PM54.0 °F32.0 °F43 %29.98 in10.0 miWest (260°)8.1 mphClear
5:53 PM50.0 °F34.0 °F54 %29.98 in10.0 miWSW (250°)5.8 mphClear
6:53 PM46.0 °F34.0 °F63 %29.99 in10.0 miCalmClear
7:53 PM41.0 °F34.0 °F76 %29.99 in10.0 miSouth (180°)4.6 mphClear
8:53 PM41.0 °F34.0 °F76 %30.00 in10.0 miSSW (210°)5.8 mphClear
9:53 PM41.0 °F32.0 °F70 %30.00 in10.0 miSW (220°)3.5 mphClear
10:53 PM39.9 °F32.0 °F73 %30.01 in10.0 miWSW (240°)5.8 mphClear
11:53 PM39.9 °F30.9 °F70 %30.02 in10.0 miSW (220°)8.1 mphClear
Hourly data recorded from KMKO, located miles away from Oktaha, Oklahoma







STORIES FROM OUR PARTNERS